Flag for Russia Weather past 2 weeks in Surgut, Russia

Now
12 °F

Snow flurries. Scattered clouds.


Feels Like: -1 °F
Forecast: 14 / 26 °F
Wind: 10 mph from Southwest

Location: Surgut Airport

Current Time: Feb 1, 2015 at 2:06:12 PM

Latest Report: Feb 1, 2015 at 1:30 PM


Visibility: 1 mi

Pressure: 30.04 "Hg

Humidity: 85%

Dew point: 9 °F

Location of SurgutLocation

Historic Weather in Surgut — Graph

°F

Surgut temperature yesterday

Maximum temperature yesterday: 10 °F (at 12:00 AM)
Minimum temperature yesterday: -8 °F (at 9:00 AM)
Average temperature yesterday: 0 °F

Past Weeks' High & Low Weather Summary

 TemperatureHumidityPressure
High28 °F (Jan 19, 3:30 PM)100% (Jan 19, 1:00 AM)30.66 "Hg (Jan 19, 1:00 AM)
Low-35 °F (Jan 23, 4:30 AM)62% (Jan 29, 12:30 AM)29.15 "Hg (Jan 19, 11:00 AM)
Average0 °F79%29.96 "Hg
* Reported Jan 17 1:00 PM — Feb 1 1:00 PM, Surgut, Weather by CustomWeather, © 2014

Note: Actual official high and low records may vary slightly from our data, if they occured in-between our weather recording intervals... More about our weather records

Advertising

Surgut weather history for previous 24 hours

 ConditionsComfort  
Time TempWeatherWind HumidityBarometerVisibility
1:00 PM
Feb 1
12 °FSnow flurries. Scattered clouds.10 mph79%30.04 "Hg1 mi
12:30 PM12 °FSnow flurries. Scattered clouds.13 mph79%30.04 "Hg4 mi
12:00 PM10 °FSnow flurries. Scattered clouds.10 mph85%30.04 "Hg4 mi
11:30 AM10 °FSnow flurries. Scattered clouds.13 mph79%30.04 "Hg4 mi
11:00 AM9 °FLight snow. More clouds than sun.10 mph85%30.04 "Hg1 mi
10:30 AM9 °FLight snow. More clouds than sun.13 mph78%30.04 "Hg2 mi
10:00 AM7 °FMore clouds than sun.13 mph78%30.04 "Hg4 mi
9:30 AM7 °FMore clouds than sun.10 mph78%30.04 "Hg4 mi
9:00 AM5 °FMostly cloudy.10 mph78%30.07 "Hg4 mi
8:30 AM3 °FMostly cloudy.8 mph85%30.07 "Hg4 mi
8:00 AM3 °FLight snow. Mostly cloudy.8 mph85%30.07 "Hg2 mi
7:30 AM3 °FPartly cloudy.10 mph78%30.07 "Hg4 mi
7:00 AM3 °FPassing clouds.8 mph78%30.09 "Hg4 mi
6:30 AM3 °FPassing clouds.6 mph78%30.09 "Hg4 mi
6:00 AM3 °FPassing clouds.6 mph85%30.09 "Hg4 mi
5:30 AM5 °FMostly cloudy.6 mph78%30.12 "Hg4 mi
5:00 AM5 °FLight snow. Low clouds.8 mph85%30.12 "Hg3 mi
4:30 AM5 °FLight snow. Low clouds.8 mph85%30.12 "Hg4 mi
4:00 AM5 °FLight snow. Mostly cloudy.6 mph85%30.12 "Hg4 mi
3:30 AM5 °FPassing clouds.8 mph85%30.15 "Hg4 mi
3:00 AM5 °FPassing clouds.6 mph85%30.15 "Hg4 mi
2:30 AM7 °FMostly cloudy.8 mph78%30.15 "Hg4 mi
1:30 AM7 °FLow clouds.6 mph85%30.18 "Hg4 mi
1:00 AM9 °FMostly cloudy.8 mph85%30.18 "Hg4 mi
12:30 AM10 °FLight snow. Overcast.6 mph85%30.18 "Hg4 mi
12:00 AM10 °FOvercast.3 mph85%30.18 "Hg4 mi
11:30 PM
Jan 31
9 °FOvercast.3 mph92%30.18 "Hg4 mi
11:00 PM7 °FLight snow. Overcast.3 mph92%30.21 "Hg4 mi
10:30 PM7 °FLight snow. Overcast.3 mph85%30.21 "Hg4 mi
10:00 PM7 °FLight snow. Overcast.3 mph85%30.21 "Hg4 mi
9:30 PM7 °FLight snow. Overcast.3 mph85%30.24 "Hg4 mi
9:00 PM5 °FLight snow. Overcast.6 mph92%30.24 "Hg4 mi
8:30 PM5 °FLight snow. Low clouds.6 mph85%30.24 "Hg3 mi
8:00 PM5 °FLight snow. Mostly cloudy.6 mph85%30.24 "Hg3 mi
7:30 PM3 °FLight snow. Mostly cloudy.8 mph85%30.27 "Hg2 mi
7:00 PM1 °FLight snow. Mostly cloudy.6 mph85%30.27 "Hg2 mi
6:30 PM1 °FLight snow. Mostly cloudy.8 mph85%30.27 "Hg2 mi
6:00 PM1 °FLight snow. Mostly cloudy.10 mph85%30.27 "Hg4 mi
5:30 PM1 °FLight snow. Mostly cloudy.10 mph78%30.30 "Hg3 mi
5:00 PM1 °FLight snow. More clouds than sun.10 mph78%30.30 "Hg2 mi
4:30 PM1 °FLight snow. More clouds than sun.8 mph78%30.30 "Hg2 mi
4:00 PM0 °FLight snow. More clouds than sun.8 mph84%30.30 "Hg1 mi
3:30 PM0 °FLight snow. More clouds than sun.10 mph84%30.30 "Hg1 mi
3:00 PM0 °FLight snow. More clouds than sun.13 mph84%30.30 "Hg3 mi
2:30 PM0 °FLight snow. More clouds than sun.13 mph78%30.30 "Hg4 mi
2:00 PM0 °FLight snow. More clouds than sun.10 mph78%30.30 "Hg4 mi
Weather by CustomWeather, © 2014

See weather overviewHow to use our weather pages